Tracking 19638 objects as of 19-May-2019
HD Live streaming from Space Station
objects crossing your sky now

COSMOS 2128

Track COSMOS 2128 now!
10-day predictions
COSMOS 2128 is classified as:


NORAD ID: 21103
Int'l Code: 1991-009D
Perigee: 1,452.4 km
Apogee: 1,475.1 km
Inclination: 74.0 °
Period: 115.0 minutes
Semi major axis: 7834 km
RCS: 0.6873 m2 (medium)
Launch date: February 12, 1991
Source: Commonwealth of Independent States (former USSR) (CIS)
Launch site: PLESETSK MISSILE AND SPACE COMPLEX (PKMTR)
aabbcc
Your satellite tracking list
Your tracking list is empty




NASA's NSSDC Master Catalog

Two Line Element Set (TLE):
1 21103U 91009D   19138.99858799 -.00000036  00000-0 -12616-3 0  9992
2 21103  74.0287 106.8686 0014499  15.9747 344.1759 12.51880485291773
Source of the keplerian elements: AFSPC